Preview of NWS' New Version of Forecast
This preview is not operational and should not be used for support decisions.

Regional Weather Roundup (RWR)

Issued by National Weather Service (NWS)

                            
000
ASPQ40 PGUM 212210
RWRPQ 
WEATHER ROUNDUP FOR THE MARIANAS AND MICRONESIA
NATIONAL WEATHER SERVICE TIYAN GU
800 AM CHST SUN SEP 22 2019

GUZ001>004-212300-
MARIANA ISLANDS-
  
CITY           SKY/WX    TMP DP  RH WIND       PRES   REMARKS
GUAM AIRPORT   SUNNY     82  75  78 SE7       29.89R                  
ANDERSEN AFB   MOSUNNY   82  77  83 SE9       29.89R HX  91           
ROTA AIRPORT   MOSUNNY   82  73  74 SE16      29.85S                  
TINIAN AP      MOSUNNY   82  77  83 SE5       29.87R HX  91           
SAIPAN AP      MOSUNNY   84  79  84 SE8       29.88R HX  96           

$$

PMZ161-212300-
REPUBLIC OF PALAU-
  
CITY           SKY/WX    TMP DP  RH WIND       PRES   REMARKS
KOROR AP       PTSUNNY   79  77  94 CALM      29.91R                  
KOROR WSO      NOT AVBL                                               

$$

PMZ171>174-212300-
FEDERATED STATES OF MICRONESIA-
  
CITY           SKY/WX    TMP DP  RH WIND       PRES   REMARKS
YAP AIRPORT    CLOUDY    79  75  89 NW12      29.90S                  
CHUUK AP       CLOUDY    82  79  89 S7        29.89R HX  93           
POHNPEI AP     CLOUDY    88  77  70 SW6       29.90R HX 100           
POHNPEI WSO    NOT AVBL                                               
KOSRAE AP      NOT AVBL                                               

$$

PMZ181-212300-
REPUBLIC OF THE MARSHALL ISLANDS-
  
CITY           SKY/WX    TMP DP  RH WIND       PRES   REMARKS
KWAJALEIN AP   SUNNY     86  77  74 SW13      29.90R HX  97           
MAJURO AP      NOT AVBL                                               
MAJURO WSO     MOSUNNY   88  77  70 NE7       29.89S HX 100           

$$